Weather History for Kansas City International, MO

Change the Weather History Date:

Friday, June 14, 2013

  Actual Average Record
Temperature  
Mean Temperature 77 °F 73 °F  
Max Temperature 87 °F 83 °F 99 °F (1936)
Min Temperature 67 °F 63 °F 48 °F (1942)
Degree Days  
Heating Degree Days 0 0  
Month to date heating degree days 17 7  
Since 1 June heating degree days 17 7  
Since 1 July heating degree days 5202 5131  
Cooling Degree Days 12 9  
Month to date cooling degree days 69 97  
Year to date cooling degree days 174 213  
Since 1 June cooling degree days 69 97  
Growing Degree Days 26 (Base 50)    
Moisture  
Dew Point 65 °F    
Average Humidity 66    
Maximum Humidity 81    
Minimum Humidity 51    
Precipitation  
Precipitation 0.00 in 0.18 in 2.52 in (1958)
Month to date precipitation 1.56 2.49  
Year to date precipitation 16.49 16.32  
Snow  
Snow 0.00 in 0.00 in 0.00 in ()
Month to date snowfall 0.0 0.0  
Since 1 June snowfall 0.0 0.0  
Since 1 July snowfall 31.8 18.8  
Snow Depth 0.00 in    
Sea Level Pressure  
Sea Level Pressure 29.95 in    
Wind  
Wind Speed 13 mph (SE)    
Max Wind Speed 26 mph    
Max Gust Speed 33 mph    
Visibility 10 miles    
Events      
T = Trace of Precipitation, MM = Missing Value Source: NWS Daily Summary

Daily Weather History Graph

Daily Weather History Graph

Search for Another Location

Airport:

Trip Planner

Search our weather history database for the weather conditions in past years. The results will help you decide how hot, cold, wet, or windy it might be!

Date:

Astronomy

Jun. 14, 2013 Rise Set
Actual Time 5:51 AM CDT 8:46 PM CDT
Civil Twilight 5:19 AM CDT 9:19 PM CDT
Nautical Twilight 4:38 AM CDT 10:00 PM CDT
Astronomical Twilight 3:51 AM CDT 10:47 PM CDT
Moon 11:25 AM CDT (6/14) No Moon Set
Length of Visible Light 15h 59m
Length of Day
14h 55m
Waxing Crescent, 30% of the Moon is Illuminated
Jun 14
Waxing Crescent
Jun 16
First Quarter
Jun 23
Full
Jun 29
Last Quarter
Jul 8
New

Hourly Weather History & Observations

Time (CDT) Temp. Heat Index Dew Point Humidity Pressure Visibility Wind Dir Wind Speed Gust Speed Precip Events Conditions
12:53 AM 69.1 °F - 62.1 °F 78% 30.00 in 10.0 mi ENE 6.9 mph - N/A   Clear
1:53 AM 68.0 °F - 62.1 °F 81% 29.99 in 10.0 mi ENE 6.9 mph - N/A   Clear
2:53 AM 66.9 °F - 61.0 °F 81% 30.01 in 10.0 mi Calm Calm - N/A   Clear
3:53 AM 69.1 °F - 60.1 °F 73% 29.99 in 10.0 mi East 6.9 mph - N/A   Clear
4:53 AM 68.0 °F - 60.1 °F 76% 29.98 in 10.0 mi ESE 8.1 mph - N/A   Partly Cloudy
5:53 AM 68.0 °F - 61.0 °F 78% 29.98 in 10.0 mi SE 6.9 mph - N/A   Mostly Cloudy
6:53 AM 69.1 °F - 63.0 °F 81% 30.01 in 10.0 mi SE 3.5 mph - N/A   Overcast
7:53 AM 71.1 °F - 64.0 °F 78% 30.00 in 10.0 mi SE 8.1 mph - N/A   Overcast
8:53 AM 73.0 °F - 63.0 °F 71% 30.01 in 10.0 mi ESE 12.7 mph - N/A   Overcast
9:53 AM 77.0 °F - 64.9 °F 66% 29.96 in 10.0 mi South 15.0 mph - N/A   Overcast
10:53 AM 80.1 °F 81.5 °F 63.0 °F 56% 29.98 in 10.0 mi South 16.1 mph - N/A   Overcast
11:53 AM 81.0 °F 82.2 °F 63.0 °F 54% 29.96 in 10.0 mi SSE 15.0 mph - N/A   Overcast
12:53 PM 82.9 °F 84.4 °F 64.0 °F 53% 29.96 in 10.0 mi SSE 16.1 mph - N/A   Mostly Cloudy
1:53 PM 84.9 °F 86.6 °F 64.9 °F 51% 29.95 in 10.0 mi SSE 12.7 mph - N/A   Overcast
2:53 PM 86.0 °F 88.2 °F 66.0 °F 51% 29.91 in 10.0 mi SE 17.3 mph - N/A   Mostly Cloudy
3:53 PM 86.0 °F 89.4 °F 68.0 °F 55% 29.90 in 10.0 mi SE 19.6 mph - N/A   Mostly Cloudy
4:53 PM 84.9 °F 89.4 °F 70.0 °F 61% 29.88 in 10.0 mi SE 15.0 mph 23.0 mph N/A   Mostly Cloudy
5:53 PM 84.9 °F 89.4 °F 70.0 °F 61% 29.86 in 10.0 mi SE 18.4 mph - N/A   Mostly Cloudy
6:53 PM 84.0 °F 89.0 °F 71.1 °F 65% 29.87 in 10.0 mi SE 13.8 mph - N/A   Scattered Clouds
7:53 PM 82.9 °F 86.5 °F 69.1 °F 63% 29.88 in 10.0 mi SE 13.8 mph 24.2 mph N/A   Mostly Cloudy
8:53 PM 81.0 °F 83.8 °F 68.0 °F 65% 29.87 in 10.0 mi SE 16.1 mph - N/A   Mostly Cloudy
9:53 PM 80.1 °F 82.3 °F 66.9 °F 64% 29.91 in 10.0 mi SE 13.8 mph - N/A   Mostly Cloudy
10:53 PM 79.0 °F - 66.0 °F 64% 29.91 in 10.0 mi SSE 17.3 mph 24.2 mph N/A   Scattered Clouds
11:53 PM 78.1 °F - 66.0 °F 66% 29.87 in 10.0 mi SSE 24.2 mph 31.1 mph N/A   Partly Cloudy